Weather History for Waco, TX

Change the Weather History Date:

Saturday, September 28, 2013

  Actual Average Record
Temperature  
Mean Temperature 78 °F 74 °F  
Max Temperature 88 °F 86 °F 103 °F (2005)
Min Temperature 68 °F 62 °F 44 °F (1996)
Degree Days  
Heating Degree Days 0 1  
Month to date heating degree days 0 1  
Since 1 July heating degree days 0 1  
Cooling Degree Days 13 9  
Month to date cooling degree days 483 380  
Year to date cooling degree days 2694 2575  
Growing Degree Days 28 (Base 50)    
Moisture  
Dew Point 72 °F    
Average Humidity 82    
Maximum Humidity 93    
Minimum Humidity 70    
Precipitation  
Precipitation 1.73 in 0.11 in 2.25 in (1936)
Month to date precipitation 5.37 2.86  
Year to date precipitation 26.80 25.02  
Sea Level Pressure  
Sea Level Pressure 29.93 in    
Wind  
Wind Speed 11 mph (ESE)    
Max Wind Speed 29 mph    
Max Gust Speed 109 mph    
Visibility 7 miles    
Events Fog , Rain , Thunderstorm    
T = Trace of Precipitation, MM = Missing Value Source: NWS Daily Summary

Daily Weather History Graph

Daily Weather History Graph

Search for Another Location

Airport:

Trip Planner

Search our weather history database for the weather conditions in past years. The results will help you decide how hot, cold, wet, or windy it might be!

Date:

Astronomy

Sep. 28, 2013 Rise Set
Actual Time 7:21 AM CDT 7:17 PM CDT
Civil Twilight 6:56 AM CDT 7:41 PM CDT
Nautical Twilight 6:28 AM CDT 8:09 PM CDT
Astronomical Twilight 6:00 AM CDT 8:38 PM CDT
Moon 1:28 AM CDT (9/28) 3:19 PM CDT (9/28)
Length of Visible Light 12h 44m
Length of Day
11h 56m
Waning Crescent, 36% of the Moon is Illuminated
Sep 28
Waning Crescent
Oct 4
New
Oct 11
First Quarter
Oct 18
Full
Oct 26
Last Quarter

Hourly Weather History & Observations

Time (CDT) Temp. Heat Index Dew Point Humidity Pressure Visibility Wind Dir Wind Speed Gust Speed Precip Events Conditions
12:33 AM 80.6 °F 85.4 °F 73.4 °F 79% 29.89 in 10.0 mi SSE 13.8 mph - N/A   Mostly Cloudy
12:51 AM 79.0 °F - 73.0 °F 82% 29.87 in 10.0 mi SSE 15.0 mph - N/A   Overcast
1:32 AM 80.6 °F 85.4 °F 73.4 °F 79% 29.89 in 10.0 mi SSE 12.7 mph 21.9 mph N/A   Overcast
1:51 AM 80.1 °F 84.2 °F 73.0 °F 79% 29.87 in 10.0 mi SSE 17.3 mph 24.2 mph N/A   Overcast
2:51 AM 79.0 °F - 73.0 °F 82% 29.87 in 10.0 mi SSE 15.0 mph - N/A   Overcast
3:51 AM 78.1 °F - 73.0 °F 84% 29.86 in 10.0 mi SSE 16.1 mph - N/A   Overcast
4:51 AM 78.1 °F - 73.0 °F 84% 29.86 in 10.0 mi SSE 12.7 mph - N/A   Partly Cloudy
5:14 AM 78.8 °F - 73.4 °F 83% 29.89 in 10.0 mi SSE 10.4 mph - N/A   Mostly Cloudy
5:51 AM 78.1 °F - 73.0 °F 84% 29.88 in 10.0 mi SSE 10.4 mph - N/A   Overcast
6:15 AM 78.8 °F - 73.4 °F 83% 29.91 in 10.0 mi SSE 12.7 mph 20.7 mph N/A   Overcast
6:51 AM 78.1 °F - 73.0 °F 84% 29.89 in 10.0 mi SSE 15.0 mph - N/A   Overcast
7:51 AM 77.0 °F - 73.9 °F 90% 29.91 in 8.0 mi SSE 10.4 mph - N/A   Mostly Cloudy
8:15 AM 77.0 °F - 73.4 °F 89% 29.93 in 8.0 mi SE 11.5 mph - N/A   Scattered Clouds
8:51 AM 79.0 °F - 73.9 °F 84% 29.91 in 10.0 mi SSE 12.7 mph - N/A   Scattered Clouds
8:59 AM 78.8 °F - 73.4 °F 83% 29.94 in 9.0 mi SE 12.7 mph - N/A   Mostly Cloudy
9:35 AM 80.6 °F 85.4 °F 73.4 °F 79% 29.95 in 10.0 mi SSE 13.8 mph 20.7 mph N/A   Scattered Clouds
9:51 AM 80.1 °F 84.2 °F 73.0 °F 79% 29.94 in 10.0 mi South 11.5 mph - N/A   Scattered Clouds
10:49 AM 84.2 °F 90.9 °F 73.4 °F 70% 29.97 in 10.0 mi South 10.4 mph - N/A   Mostly Cloudy
10:51 AM 84.9 °F 93.3 °F 75.0 °F 72% 29.94 in 10.0 mi South 11.5 mph - N/A   Mostly Cloudy
11:51 AM 84.9 °F 92.1 °F 73.9 °F 69% 29.94 in 10.0 mi South 12.7 mph - N/A   Mostly Cloudy
11:58 AM 86.0 °F 93.4 °F 73.4 °F 66% 29.96 in 10.0 mi SSE 13.8 mph - N/A   Mostly Cloudy
12:51 PM 82.0 °F 88.6 °F 75.0 °F 79% 29.93 in 4.0 mi SSE 15.0 mph - 0.02 in Rain Rain
1:07 PM 87.8 °F 102.5 °F 78.8 °F 75% 29.94 in 10.0 mi SSE 12.7 mph - 0.00 in Thunderstorm Scattered Clouds
1:51 PM 87.1 °F 96.3 °F 75.0 °F 67% 29.89 in 10.0 mi SSE 13.8 mph - 0.00 in Thunderstorm Scattered Clouds
1:58 PM 80.6 °F 84.6 °F 71.6 °F 74% 29.92 in 1.5 mi West 24.2 mph 28.8 mph 0.00 in Rain , Thunderstorm Light Rain
2:01 PM 75.2 °F - 71.6 °F 89% 29.92 in 0.5 mi West 18.4 mph 28.8 mph 0.06 in Fog , Rain , Thunderstorm Heavy Rain
2:04 PM 73.4 °F - 71.6 °F 94% 29.92 in 0.2 mi West 16.1 mph 28.8 mph 0.22 in Fog , Rain , Thunderstorm Heavy Rain
2:18 PM 73.4 °F - 71.6 °F 94% 29.92 in 0.5 mi WNW 24.2 mph 33.4 mph 0.66 in Fog , Rain , Thunderstorm Heavy Thunderstorms and Rain
2:37 PM 75.2 °F - 71.6 °F 89% 29.92 in 0.8 mi SSW 10.4 mph 31.1 mph 1.06 in Rain , Thunderstorm Heavy Thunderstorms and Rain
2:46 PM 75.2 °F - 71.6 °F 89% 29.93 in 1.5 mi NE 17.3 mph 109.3 mph 1.18 in Rain , Thunderstorm Light Thunderstorms and Rain
2:48 PM 75.2 °F - 71.6 °F 89% 29.93 in 3.0 mi Variable 5.8 mph 109.3 mph 1.18 in Rain , Thunderstorm Light Thunderstorms and Rain
2:51 PM 75.0 °F - 73.0 °F 94% 29.90 in 6.0 mi ENE 5.8 mph 109.3 mph 1.18 in Rain , Thunderstorm Light Thunderstorms and Rain
3:17 PM 78.8 °F - 73.4 °F 83% 29.91 in 10.0 mi Calm Calm - 0.00 in   Overcast
3:51 PM 82.0 °F 87.4 °F 73.0 °F 74% 29.88 in 10.0 mi Calm Calm - 0.00 in   Mostly Cloudy
4:51 PM 75.9 °F - 73.0 °F 91% 29.89 in 10.0 mi North 17.3 mph - 0.00 in Rain Light Rain
5:05 PM 75.2 °F - 73.4 °F 94% 29.92 in 7.0 mi NNW 16.1 mph 24.2 mph 0.01 in Rain , Thunderstorm Light Rain
5:21 PM 73.4 °F - 71.6 °F 94% 29.93 in 1.8 mi NNW 19.6 mph 27.6 mph 0.05 in Rain , Thunderstorm Heavy Rain
5:51 PM 73.0 °F - 72.0 °F 96% 29.92 in 1.0 mi NNE 6.9 mph 17.3 mph 0.37 in Rain , Thunderstorm Heavy Thunderstorms and Rain
6:07 PM 73.4 °F - 71.6 °F 94% 29.93 in 3.0 mi NE 6.9 mph - 0.11 in Rain , Thunderstorm Light Thunderstorms and Rain
6:42 PM 73.4 °F - 71.6 °F 94% 29.93 in 10.0 mi NNE 5.8 mph - 0.13 in Rain Light Rain
6:51 PM 73.9 °F - 72.0 °F 93% 29.91 in 10.0 mi NNE 5.8 mph - 0.13 in   Mostly Cloudy
7:19 PM 73.4 °F - 71.6 °F 94% 29.96 in 10.0 mi North 10.4 mph - 0.00 in Rain Light Rain
7:29 PM 73.4 °F - 71.6 °F 94% 29.97 in 10.0 mi North 12.7 mph - 0.00 in   Overcast
7:51 PM 73.0 °F - 72.0 °F 96% 29.96 in 10.0 mi North 9.2 mph - 0.00 in   Overcast
8:51 PM 73.0 °F - 71.1 °F 93% 29.99 in 8.0 mi NE 6.9 mph - N/A   Overcast
9:00 PM 73.4 °F - 71.6 °F 94% 30.01 in 5.0 mi ENE 6.9 mph - N/A   Overcast
9:13 PM 73.4 °F - 71.6 °F 94% 30.01 in 6.0 mi ENE 5.8 mph - N/A   Overcast
9:31 PM 73.4 °F - 71.6 °F 94% 30.02 in 2.5 mi NE 8.1 mph - 0.00 in Rain Light Rain
9:51 PM 73.0 °F - 71.1 °F 93% 30.01 in 2.5 mi North 6.9 mph - 0.01 in Rain Light Rain
10:07 PM 73.4 °F - 71.6 °F 94% 30.03 in 3.0 mi NNE 12.7 mph 18.4 mph 0.01 in Rain Light Rain
10:17 PM 71.6 °F - 71.6 °F 100% 30.03 in 2.5 mi North 11.5 mph - 0.01 in   Overcast
10:49 PM 71.6 °F - 69.8 °F 94% 30.04 in 6.0 mi NNW 8.1 mph - 0.02 in   Overcast
10:51 PM 71.1 °F - 70.0 °F 96% 30.02 in 6.0 mi NNW 10.4 mph - 0.02 in   Overcast
11:51 PM 68.0 °F - 66.9 °F 96% 30.01 in 10.0 mi NNW 10.4 mph - 0.00 in   Overcast
11:58 PM 68.0 °F - 66.2 °F 94% 30.03 in 10.0 mi NNW 10.4 mph - N/A   Overcast